Regional Weather Roundup
Issued by NWS

Home | Current Version | Previous Version | Text Only | Print | Product List | Glossary On
Versions: 1 2 3 4 5 6 7 8 9 10 11 12 13 14 15 16 17 18 19 20 21 22 23 24 25 26 27 28 29 30 31 32 33 34 35 36 37 38 39 40 41 42 43 44 45 46 47 48 49 50
000
ASUS43 KMPX 162001
RWRMN
WEATHER ROUNDUP FOR MINNESOTA
NATIONAL WEATHER SERVICE TWIN CITIES/CHANHASSEN MN
300 PM CDT WED APR 16 2014


NOTE: "FAIR" INDICATES FEW OR NO CLOUDS BELOW 12,000 FEET WITH NO
SIGNIFICANT WEATHER AND/OR OBSTRUCTIONS TO VISIBILITY. N/A MEANS
CURRENT SKY AND/OR WEATHER CONDITIONS ARE NOT AVAILABLE.

MNZ060>063-068>070-162100-
   Twin Cities Metro

CITY           SKY/WX    TMP DP  RH WIND       PRES   REMARKS
TWIN CITIES    CLOUDY    37  29  72 NE13      29.89S
ST PAUL        CLOUDY    37  28  70 NE14G25   29.91F
CRYSTAL        LGT SNOW  32  29  88 NE8       29.90F VSB 3/4 WCI  25
EDEN PRAIRIE   CLOUDY    37  29  72 NE13G21   29.86S
LAKEVILLE      CLOUDY    39  28  65 NE14      29.85R
SOUTH ST PAUL  CLOUDY    40  29  63 E9        29.89F
LAKE ELMO      CLOUDY    36  30  80 E17       29.91F
$$
MNZ001>005-007-008-013>017-022>024-027-028-162100-
   Northwest Minnesota

CITY           SKY/WX    TMP DP  RH WIND       PRES   REMARKS
BEMIDJI        CLOUDY    34  15  46 E12       30.10R WCI  26
HALLOCK        CLOUDY    37   5  25 NE13G20   30.21R
ROSEAU         SUNNY     36   9  32 NE18      30.21R
WARROAD        SUNNY     34  10  37 NE18      30.22S WCI  23
THIEF RVR FALL MOSUNNY   39   7  26 NE17G24   30.14S
CROOKSTON      MOSUNNY   39  10  30 NE14G24   30.14R
FOSSTON        CLOUDY    37  16  41 E12G18    30.10R
DETROIT LAKES  CLOUDY    32  23  69 E21G26    30.05S WCI  20
MOORHEAD       CLOUDY    36  28  75 NE18      30.08R
PARK RAPIDS    CLOUDY    29  21  72 NE17G25   30.06R WCI  17
$$
MNZ006-009>011-018-025>026-162100-
   North Central Minnesota

CITY           SKY/WX    TMP DP  RH WIND       PRES   REMARKS
BAUDETTE       MOSUNNY   36   5  27 NE8       30.18S
FLAG ISLAND    SUNNY     30   7  37 N16       30.22S WCI  19
INTL FALLS     MOSUNNY   35   4  27 E9        30.18R WCI  28
WASKISH        CLOUDY    39   9  28 NE9       30.13S
BIG FORK       CLOUDY    36  10  35 E12       30.13R
LONGVILLE      MIX PCPN  28  23  80 NE9       30.09R WCI  20
GRAND RAPIDS   CLOUDY    27  19  74 NE10G18   30.11S WCI  17
CRANE LAKE     CLOUDY    37   9  30 E5        30.19S
ORR            CLOUDY    36   1  23 E6        30.12S
COOK           CLOUDY    34  10  37 E7        30.15S WCI  28
$$
MNZ012-019>021-037-162100-
   Northeast Minnesota

CITY           SKY/WX    TMP DP  RH WIND       PRES   REMARKS
DULUTH         SNOW      26  22  84 E20G25    30.10R VSB 1/2 WCI  12
ELY            CLOUDY    30   5  34 E12G18    30.16S WCI  21
HIBBING        LGT SNOW  28  22  78 E12       30.14R VSB 3/4 WCI  18
EVELETH        LGT SNOW  27  23  86 E12       30.15S VSB 1   WCI  16
DULUTH HARBOR  SNOW      28  27  93 NE23      30.14S VSB 1/2 WCI  14
TWO HARBORS    LGT SNOW  27  21  80 E18       30.13F VSB 1   WCI  13
SILVER BAY     LGT SNOW  25  25 100 NE14G20   30.17S VSB 3/4 WCI  13
GRAND MARAIS     N/A     30  18  60 E16G22    30.26S WCI  19
G MARAIS ARPRT CLOUDY    27   7  43 E8        30.20R WCI  18
$$
MNZ029>031-032-039>041-046>048-054>057-064-162100-
   West Central Minnesota

CITY           SKY/WX    TMP DP  RH WIND       PRES   REMARKS
FERGUS FALLS   CLOUDY    30  21  69 E21G26    29.99S WCI  17
WHEATON        CLOUDY    34  30  86 NE17G28   30.01R WCI  23
MORRIS         LGT SNOW  30  27  86 NE22G29   29.93R VSB 3/4 WCI  17
ALEXANDRIA     LGT SNOW  28  25  88 NE23      29.95R VSB 3/4 WCI  14
ELBOW LAKE     LGT SNOW  30  26  86 NE15G24   29.97R WCI  19
WADENA         LGT SNOW  27  23  86 NE12G21   30.01S WCI  16
GLENWOOD       SNOW      28  27  93 NE21G29   29.93R VSB 1/2 WCI  15
APPLETON       SNOW      30  28  93 NE18G26   29.92R VSB 1/4 WCI  18
BENSON           N/A     28  27  93 E17G23    29.91R WCI  16
ORTONVILLE       N/A     28  25  86 NE24G33   29.93R WCI  14
MADISON        SNOW      32  30  93 NE20      29.90R VSB 1/2 WCI  20
WILLMAR        LGT SNOW  30  27  86 NE16G29   29.89R WCI  19
$$
MNZ033>034-036-042>043-049>051-058-059-162100-
   Central Minnesota

CITY           SKY/WX    TMP DP  RH WIND       PRES   REMARKS
ST CLOUD       SNOW      29  26  89 NE14G21   29.94S VSB 1/4 WCI  18
SAUK CENTRE    SNOW      28  26  93 NE20G31   29.94S VSB 1/2 WCI  14
PAYNESVILLE    LGT SNOW  29  27  92 NE16G24   29.91S VSB 1   WCI  17
AITKIN         LGT SNOW  30  25  80 NE14G22   30.03S WCI  20
PINE RIVER     LGT SNOW  28  23  80 NE15G21   30.08S WCI  17
BRAINERD       SNOW      32  24  72 NE18      30.03S VSB 1/2 WCI  20
STAPLES        LGT SNOW  27  25  93 NE10G22   30.02S WCI  17
LONG PRAIRIE   CLOUDY    27  25  93 NE13G24   29.96S VSB 3/4 WCI  16
LITTLE FALLS   SNOW      28  27  93 NE8G16    29.98F VSB 1/4 WCI  20
LITCHFIELD     SNOW      30  30 100 NE14      29.89R VSB 1/2 WCI  20
BUFFALO        SNOW      31  28  90 NE15G22   29.92R VSB 1/2 WCI  20
MAPLE LAKE     SNOW      32  31  95 NE13      29.92R VSB 1/2 WCI  22
$$
MNZ037-044-045-052-053-162100-
   East Central Minnesota

CITY           SKY/WX    TMP DP  RH WIND       PRES   REMARKS
PRINCETON      SNOW      30  28  93 NE14G20   29.95F VSB 1/2 WCI  20
MORA           SNOW      30  27  86 NE13G18   30.01F VSB 1/2 WCI  20
CAMBRIDGE      SNOW      30  25  80 NE8       29.94F VSB 1/2 WCI  23
RUSH CITY      MIX PCPN  30  28  92 NE13G18   29.99S WCI  20
MOOSE LAKE     SNOW      28  27  93 NE10G18   30.05R VSB 1/4 WCI  19
HINCKLEY       SNOW      30  28  93 NE14G21   30.02S VSB 1/4 WCI  20
CLOQUET        SNOW      27  25  93 E16G24    30.08R VSB 1/4 WCI  14
MCGREGOR       CLOUDY    30  27  86 NE9G18    30.07R VSB 1   WCI  22
$$
MNZ071>073-080-081-089-090-097-098-162100-
   Southwest Minnesota

CITY           SKY/WX    TMP DP  RH WIND       PRES   REMARKS
MONTEVIDEO     LGT SNOW  30  28  93 E20G28    29.89R WCI  18
GRANITE FALLS  LGT SNOW  31  28  90 N16       29.87R VSB 1   WCI  20
CANBY          LGT SNOW  30  29  95 NE16      29.88R VSB 3/4 WCI  19
MARSHALL       CLOUDY    34  28  80 NE15      29.82R WCI  24
REDWOOD FALLS  LGT SNOW  34  32  92 E8        29.82R FOG     WCI  27
OLIVIA         SNOW      32  30  93 NE14      29.83R VSB 1/4 WCI  22
PIPESTONE      LGT SNOW  34  34 100 NE14      29.76R WCI  24
WINDOM         LGT RAIN  43  39  87 NW20      29.75R
WORTHINGTON    CLOUDY    39  30  70 N17       29.74R
JACKSON        CLOUDY    54  27  35 SW13G18   29.72F
TRACY          RAIN      34  33  96 E7        29.81R WCI  28
SLAYTON        LGT RAIN  34  34 100 NE12      29.77R WCI  25
$$
MNZ065>067-074>077-082>085-091>093-162100-
   South Central Minnesota

CITY           SKY/WX    TMP DP  RH WIND       PRES   REMARKS
MANKATO        CLOUDY    50  34  53 S15G25    29.78F
NEW ULM        RAIN      41  36  81 N12G20    29.79R
ST JAMES       LGT RAIN  48  37  66 SW15G28   29.77R
FAIRMONT       CLOUDY    55  32  41 S20       29.75R
GLENCOE        LGT SNOW  33  31  90 NE9G16    29.85R WCI  26
FARIBAULT      CLOUDY    52  32  46 N5        29.82S
OWATONNA       CLOUDY    54  36  50 SE17G24   29.79S
WASECA         CLOUDY    54  37  54 SE8       29.79F
ALBERT LEA     CLOUDY    57  30  35 S14G24    29.76S
$$
MNZ078>079-086>088-094>096-162100-
   Southeast Minnesota

CITY           SKY/WX    TMP DP  RH WIND       PRES   REMARKS
ROCHESTER      CLOUDY    51  34  52 SE23G33   29.81F
RED WING       CLOUDY    50  27  40 SE12      29.86S
STANTON        CLOUDY    50  32  50 E9        29.82F
DODGE CENTER   CLOUDY    54  34  47 S23       29.82R
WINONA         CLOUDY    54  32  43 S12       29.89S
AUSTIN         CLOUDY    54  34  47 S18G26    29.80R
PRESTON        CLOUDY    53  33  47 S23G38    29.85S
$$
ABBREVIATIONS USED IN REMARKS
   TC - TEMPERATURES IN CELSIUS
  WCI - WIND CHILL INDEX
   HX - HEAT INDEX
  VSB - VISIBILITY
$$



USA.gov is the U.S. government's official web portal to all federal, state and local government web resources and services.